Hourly Weather Roundup
Issued by NWS Central Illinois

Home | Current Version | Previous Version | Text Only | Print | Product List | Glossary On
Versions: 1 2 3 4 5 6 7 8 9 10 11 12 13 14 15 16 17 18 19 20 21 22 23 24 25 26 27 28 29 30 31 32 33 34 35 36 37 38 39 40 41 42 43 44 45 46 47 48 49 50
177
NZUS43 KILX 211710
HWRILX

AREA WEATHER ROUNDUP
NATIONAL WEATHER SERVICE, LINCOLN IL
1200 PM CDT THU MAY 21 2015


CITY           SKY/WX    TMP DP  RH WIND       PRES   REMARKS
BLOOMINGTON    MOSUNNY   59  40  49 NW15      30.14F
CHAMPAIGN      PTSUNNY   59  42  53 NW13      30.13F
DANVILLE       PTSUNNY   57  42  57 NW12      30.10F
DECATUR        PTSUNNY   58  44  60 NW10      30.16F
EFFINGHAM      CLOUDY    54  39  57 W9        30.18S
FLORA          CLOUDY    53  42  67 N7        30.18R
GALESBURG      SUNNY     60  42  50 W14       30.15F
JACKSONVILLE   SUNNY     59  42  53 W9        30.19S
LACON          MOSUNNY   60  37  42 NW12G18   30.12F
LAWRENCEVILLE  CLOUDY    56  44  64 N10       30.16R
LITCHFIELD     MOSUNNY   53  42  65 NW7       30.20R
$$


CITY           SKY/WX    TMP DP  RH WIND       PRES   REMARKS
LINCOLN        MOSUNNY   59  43  55 NW7       30.15F
MACOMB         MOSUNNY   59  44  56 W14       30.19F
MATTOON        PTSUNNY   56  41  57 NW12G18   30.14F
MT CARMEL AP   CLOUDY    55  43  62 N10       30.16R
OLNEY-NOBLE AP CLOUDY    52  43  71 NW10      30.17R
PARIS          PTSUNNY   56  41  55 NW10G17   30.14F
PEORIA         MOSUNNY   61  41  47 NW7       30.15F
PONTIAC        SUNNY     61  42  49 NW13      30.13F
RANTOUL        CLOUDY    60  41  48 N12G18    30.12F
ROBINSON       CLOUDY    53  43  69 N10       30.16S
SPRINGFIELD    SUNNY     60  41  49 N9        30.18S
TAYLORVILLE    MOSUNNY   54  43  66 N5        30.18S
$$

...REGIONAL REPORTS...


CITY           SKY/WX    TMP DP  RH WIND       PRES   REMARKS
CHICAGO O`HARE MOSUNNY   60  39  45 NW8G18    30.07F
KANKAKEE       MOSUNNY   57  44  61 NW8       30.11F
MOLINE         SUNNY     63  40  42 W13G21    30.12F
MOUNT VERNON   CLOUDY    55  43  62 N5        30.19S
PITTSFIELD     MOSUNNY   57  41  55 NW6       30.21S
QUINCY         SUNNY     59  41  51 W6        30.19F
ROCKFORD       MOSUNNY   61  42  49 W8        30.10F
$$


CITY           SKY/WX    TMP DP  RH WIND       PRES   REMARKS
BURLINGTON     SUNNY     61  44  53 W10       30.16F
CEDAR RAPIDS   SUNNY     62  48  60 W10       30.12F
DES MOINES     MOSUNNY   68  43  40 NW14      30.16F
KIRKSVILLE     SUNNY     61  44  53 W7        30.21F
OTTUMWA        SUNNY     62  44  51 W13       30.15F
ST LOUIS       PTSUNNY   58  43  57 NW3       30.22S
$$


CITY           SKY/WX    TMP DP  RH WIND       PRES   REMARKS
TERRE HAUTE    CLOUDY    54  43  66 N8        30.13F
EVANSVILLE     CLOUDY    54  44  69 NW9       30.16R
INDIANAPOLIS   CLOUDY    52  41  66 NW14      30.10S
LAFAYETTE      CLOUDY    55  42  61 VRB7G17   30.11F
MADISON        SUNNY     64  40  41 W8        30.03F
MILWAUKEE      MOSUNNY   64  34  32 N7        30.02F
$$





USA.gov is the U.S. government's official web portal to all federal, state and local government web resources and services.